This is the latest recevied weather packets stored in our database for station/object WJ9H. If no packets are shown the sender has not sent any weather packets the latest 1 day(s).
| Time | Temp. | Humidity | Pressure | Rain* | Wind** | Luminosity | Snow |
|---|---|---|---|---|---|---|---|
| 1778012700 | 12.78° C | - | 1009.9 hPa | 0 mm | 5.36 m/s, 3° | - | - |
| 1778012088 | 12.78° C | - | 1009.5 hPa | 0 mm | 3.58 m/s, 354° | - | - |
| 1778012088 | 12.78° C | - | 1009.5 hPa | 0 mm | 0.89 m/s, 322° | - | - |
| 1778011634 | 13.33° C | - | 1009.9 hPa | 0 mm | 4.02 m/s, 346° | - | - |
| 1778010887 | 13.33° C | - | 1009.9 hPa | 0 mm | 3.13 m/s, 308° | - | - |
| 1778010649 | 12.78° C | - | 1009.9 hPa | 0 mm | 2.68 m/s, 326° | - | - |
| 1778010581 | 12.78° C | - | 1009.9 hPa | 0 mm | 2.68 m/s, 326° | - | - |
| 1778010250 | 13.33° C | - | 1009.9 hPa | 0 mm | 3.13 m/s, 298° | - | - |
| 1778009978 | 13.33° C | - | 1009.9 hPa | 0 mm | 3.13 m/s, 298° | - | - |
| 1778009837 | 12.78° C | - | 1009.9 hPa | 0 mm | 2.68 m/s, 322° | - | - |
| 1778009687 | 12.78° C | - | 1009.9 hPa | 0 mm | 3.58 m/s, 323° | - | - |
| 1778009378 | 12.78° C | - | 1009.9 hPa | 0 mm | 2.68 m/s, 322° | - | - |
| 1778009050 | 13.33° C | - | 1010.2 hPa | 0 mm | 4.47 m/s, 356° | - | - |
| 1778008778 | 13.33° C | - | 1010.2 hPa | 0 mm | 4.47 m/s, 356° | - | - |
| 1778008488 | 12.78° C | - | 1010.2 hPa | 0 mm | 2.68 m/s, 342° | - | - |
| 1778008444 | 12.78° C | - | 1010.2 hPa | 0 mm | 3.58 m/s, 37° | - | - |
| 1778008178 | 12.78° C | - | 1010.2 hPa | 0 mm | 3.58 m/s, 37° | - | - |
| 1778008036 | 12.78° C | - | 1010.2 hPa | 0 mm | 5.36 m/s, 340° | - | - |
| 1778007298 | 12.22° C | - | 1010.2 hPa | 0 mm | 4.47 m/s, 7° | - | - |
| 1778007288 | 12.78° C | - | 1009.9 hPa | 0 mm | 3.58 m/s, 31° | - | - |
| 1778007047 | 12.22° C | - | 1010.2 hPa | 0 mm | 4.47 m/s, 7° | - | - |
| 1778006976 | 12.22° C | - | 1010.2 hPa | 0 mm | 4.47 m/s, 7° | - | - |
| 1778006835 | 12.22° C | - | 1009.9 hPa | 0 mm | 4.92 m/s, 172° | - | - |
| 1778006378 | 12.22° C | - | 1009.9 hPa | 0 mm | 4.92 m/s, 172° | - | - |
| 1778006237 | 12.22° C | - | 1009.9 hPa | 0 mm | 3.58 m/s, 322° | - | - |
* Rain latest hour (hover to see other rain measurements)
** Current wind speed in m/s (hover to see current wind gust speed)